EST,Max TemperatureF,Mean TemperatureF,Min TemperatureF,Max Dew PointF,MeanDew PointF,Min DewpointF,Max Humidity, Mean Humidity, Min Humidity, Max Sea Level PressureIn, Mean Sea Level PressureIn, Min Sea Level PressureIn, Max VisibilityMiles, Mean VisibilityMiles, Min VisibilityMiles, Max Wind SpeedMPH, Mean Wind SpeedMPH, Max Gust SpeedMPH,PrecipitationIn, CloudCover, Events, WindDirDegrees
2014-2-1,46,35,23,26,19,16,81,57,33,30.28,30.15,29.96,10,9,5,18,6,30,0.03,5,,104
2014-2-2,41,35,29,34,30,25,85,70,55,30.14,30.01,29.93,10,8,5,8,2,21,0.01,7,Rain,309
2014-2-3,36,25,14,28,24,14,92,75,58,30.38,30.19,30.11,10,4,0,9,3,12,0.19,7,Fog-Snow,23
2014-2-4,28,18,8,19,13,6,100,79,57,30.52,30.40,30.24,10,7,2,8,1,9,0.00,4,,81
2014-2-5,33,28,22,30,24,11,92,76,60,30.22,29.88,29.63,10,4,0,21,6,28,0.92,8,Fog-Rain-Snow,26
2014-2-6,30,21,11,12,11,7,84,67,50,30.35,30.28,30.19,10,10,0,17,4,23,T,2,Snow,271
2014-2-7,29,16,3,8,3,-2,88,61,34,30.35,30.30,30.25,10,10,8,18,7,24,0.00,2,,263
2014-2-8,24,13,1,14,4,-4,92,63,34,30.38,30.29,30.19,10,9,5,9,2,12,T,3,Snow,292
2014-2-9,21,14,6,16,12,3,92,83,73,30.23,30.07,29.97,10,4,0,9,1,12,0.09,7,Fog-Snow,77
2014-2-10,25,17,8,13,6,4,88,65,42,30.32,30.21,30.09,10,10,7,15,6,18,T,4,,286
2014-2-11,24,11,-3,4,0,-6,91,63,35,30.54,30.43,30.34,10,10,7,13,3,16,0.00,0,,299
2014-2-12,19,6,-7,5,-1,-10,87,66,45,30.59,30.46,30.28,10,10,10,13,3,22,0.00,2,,86
2014-2-13,31,24,17,28,20,5,92,74,56,30.26,29.76,29.34,10,3,0,18,8,26,0.60,8,Fog-Snow,269
2014-2-14,37,31,24,24,21,18,81,69,56,29.76,29.55,29.36,10,10,10,23,10,29,0.00,7,,271
2014-2-15,33,26,19,27,22,7,92,71,50,29.96,29.77,29.70,10,4,0,18,7,25,0.21,7,Fog-Snow,287
2014-2-16,24,18,11,15,8,3,80,65,50,30.26,30.06,29.97,10,10,9,18,8,23,T,4,,279
2014-2-17,29,18,6,6,3,0,80,59,37,30.49,30.35,30.15,10,10,10,20,8,26,0.00,1,,268
2014-2-18,37,28,19,27,20,5,88,63,38,30.13,30.01,29.93,10,4,0,31,10,40,0.11,6,Rain-Snow,142
2014-2-19,43,30,16,34,26,14,96,79,62,30.11,29.85,29.68,10,5,2,20,5,26,0.22,5,Rain,122
2014-2-20,45,32,18,28,23,17,100,73,45,30.26,30.12,29.91,10,8,0,20,6,28,0.06,3,Fog-Rain,75
2014-2-21,45,38,31,40,32,21,89,70,51,29.91,29.77,29.64,10,8,2,25,9,33,0.11,4,Rain,239
2014-2-22,50,37,23,23,19,15,81,54,27,30.00,29.96,29.93,10,10,10,29,7,36,0.00,0,,250
2014-2-23,50,37,24,28,24,21,88,65,42,30.04,29.97,29.88,10,10,10,13,4,16,0.00,3,,272
2014-2-24,37,30,23,16,11,7,59,50,41,30.12,30.00,29.89,10,10,10,25,15,33,T,4,,281
2014-2-25,30,25,19,14,10,8,68,55,42,30.09,30.04,29.97,10,10,10,18,8,23,T,6,,270
2014-2-26,23,18,13,14,5,-3,77,56,34,30.00,29.91,29.83,10,9,2,25,7,33,T,5,Snow,281
2014-2-27,25,16,6,12,0,-14,64,49,34,30.19,29.80,29.65,10,9,2,29,13,39,T,4,Snow,262
2014-2-28,20,11,2,-3,-8,-15,69,46,22,30.43,30.35,30.21,10,10,10,12,5,14,0.00,0,,222